Location: Newark
(45.2500°N, 7.5833°E)
Time: 22:29:27
(UTC+00:00)

SR - Pass Details

Date: 31 January 2020
Orbit: 575 x 881 km, 66.7° (Epoch: 19 February)

Event Time Altitude Azimuth Distance (km) Brightness Sun altitude
Exits shadow 06:15:43 - 310° (NW) 2,739 ? -6.8°
Reaches altitude 10° 06:16:54 10° 304° (NW) 2,364 ? -6.6°
Maximum altitude 06:21:04 23° 253° (WSW) 1,560 ? -5.9°
Drops below altitude 10° 06:24:59 10° 202° (SSW) 2,192 ? -5.2°
Sets 06:27:37 0° 188° (S) 3,049 ? -4.8°
